QPF
0.00 0.01 0.03 0.03 0.02 0.01 0.01 0.01 0.02 0.02 0.02 0.01 0.01 0.01 0.01 0.01 0.01 0.01 0.01 0.01 0.02 0.01 0.02 0.02 0.02 0.02 0.01 0.01 0.01 0.01 0.00 0.01 0.01 0.01 0.02 0.01 0.01 0.01 0.00 0.00 0.00 0.00 0.00
0.00 0.01 0.03 0.03 0.02 0.02 0.01 0.02 0.01 0.01 0.01 0.01 0.00 0.01 0.01 0.01 0.01 0.01 0.01 0.01 0.02 0.02 0.02 0.01 0.01 0.01 0.00 0.00 0.01 0.01 0.00 0.00 0.01 0.00 0.01 0.01 0.01 0.01 0.01 0.01 0.00 0.00 0.01
0.00 0.01 0.03 0.03 0.03 0.02 0.02 0.01 0.01 0.01 0.00 0.01 0.01 0.01 0.00 0.01 0.01 0.02 0.02 0.01 0.01 0.01 0.01 0.01 0.01 0.00 0.00 0.00 0.00 0.00 0.00 0.00 0.00 0.00 0.00 0.00 0.00 0.01 0.01 0.01 0.01 0.01 0.01
0.00 0.01 0.02 0.03 0.02 0.02 0.02 0.01 0.01 0.01 0.01 0.01 0.01 0.01 0.01 0.01 0.01 0.02 0.02 0.01 0.01 0.01 0.01 0.01 0.00 0.00 0.00 0.00 0.00 0.00 0.00 0.00 0.00 0.00 0.00 0.00 0.00 0.02 0.02 0.02 0.02 0.01 0.01
0.01 0.01 0.02 0.03 0.03 0.03 0.02 0.02 0.01 0.01 0.01 0.01 0.01 0.02 0.02 0.01 0.01 0.01 0.02 0.01 0.01 0.00 0.00 0.00 0.00 0.00 0.00 0.00 0.00 0.00 0.00 0.00 0.00 0.00 0.00 0.00 0.00 0.02 0.02 0.02 0.02 0.01 0.01
0.01 0.01 0.02 0.02 0.03 0.03 0.03 0.02 0.02 0.02 0.02 0.01 0.01 0.01 0.02 0.02 0.01 0.01 0.01 0.01 0.00 0.00 0.00 0.00 0.00 0.00 0.00 0.00 0.00 0.01 0.00 0.00 0.00 0.00 0.00 0.00 0.01 0.02 0.02 0.01 0.01 0.01 0.01
0.01 0.01 0.02 0.02 0.03 0.03 0.03 0.04 0.03 0.02 0.01 0.01 0.02 0.02 0.02 0.03 0.02 0.01 0.00 0.00 0.00 0.00 0.00 0.00 0.00 0.00 0.00 0.00 0.00 0.00 0.00 0.00 0.00 0.00 0.00 0.00 0.02 0.02 0.02 0.01 0.01 0.02 0.02
0.02 0.02 0.02 0.03 0.03 0.04 0.04 0.04 0.04 0.03 0.02 0.02 0.02 0.02 0.02 0.02 0.01 0.00 0.00 0.00 0.00 0.00 0.00 0.00 0.00 0.00 0.00 0.00 0.00 0.00 0.00 0.00 0.00 0.00 0.00 0.00 0.02 0.02 0.02 0.02 0.02 0.01 0.02
0.03 0.03 0.03 0.03 0.03 0.04 0.04 0.04 0.04 0.04 0.04 0.03 0.02 0.02 0.01 0.01 0.01 0.00 0.00 0.00 0.00 0.01 0.00 0.00 0.00 0.00 0.00 0.00 0.00 0.00 0.00 0.00 0.00 0.00 0.00 0.00 0.01 0.01 0.02 0.01 0.01 0.01 0.02
0.03 0.03 0.03 0.02 0.02 0.03 0.03 0.03 0.04 0.04 0.04 0.04 0.04 0.03 0.02 0.02 0.01 0.01 0.00 0.00 0.01 0.01 0.01 0.00 0.00 0.00 0.00 0.00 0.00 0.00 0.00 0.00 0.00 0.00 0.00 0.00 0.01 0.01 0.01 0.01 0.01 0.01 0.01
0.04 0.03 0.02 0.02 0.01 0.02 0.03 0.03 0.04 0.04 0.04 0.04 0.04 0.03 0.03 0.04 0.03 0.02 0.01 0.01 0.01 0.02 0.01 0.01 0.01 0.00 0.00 0.00 0.00 0.00 0.00 0.00 0.00 0.00 0.00 0.00 0.01 0.01 0.01 0.01 0.00 0.00 0.00
0.04 0.03 0.02 0.02 0.01 0.01 0.02 0.03 0.03 0.03 0.04 0.03 0.03 0.03 0.03 0.03 0.03 0.03 0.02 0.02 0.02 0.02 0.02 0.02 0.01 0.01 0.00 0.00 0.00 0.00 0.00 0.00 0.00 0.00 0.00 0.00 0.01 0.01 0.01 0.00 0.00 0.00 0.00
0.03 0.03 0.02 0.02 0.02 0.02 0.02 0.02 0.02 0.03 0.03 0.03 0.03 0.03 0.03 0.04 0.04 0.04 0.02 0.02 0.02 0.02 0.03 0.03 0.02 0.00 0.00 0.00 0.00 0.00 0.00 0.00 0.00 0.00 0.00 0.00 0.00 0.00 0.00 0.00 0.00 0.00 0.00
0.04 0.03 0.02 0.02 0.03 0.02 0.01 0.01 0.02 0.02 0.03 0.03 0.03 0.03 0.03 0.04 0.04 0.04 0.03 0.02 0.02 0.03 0.03 0.02 0.01 0.01 0.00 0.00 0.00 0.00 0.00 0.00 0.00 0.00 0.00 0.00 0.00 0.00 0.00 0.00 0.00 0.00 0.00
0.03 0.03 0.02 0.01 0.02 0.03 0.02 0.01 0.01 0.02 0.02 0.02 0.03 0.02 0.02 0.02 0.03 0.03 0.03 0.03 0.03 0.03 0.04 0.03 0.03 0.02 0.01 0.00 0.00 0.00 0.00 0.00 0.00 0.00 0.00 0.00 0.00 0.00 0.00 0.00 0.00 0.00 0.00
0.03 0.03 0.03 0.02 0.02 0.03 0.04 0.02 0.01 0.01 0.02 0.02 0.02 0.02 0.01 0.01 0.02 0.02 0.02 0.02 0.02 0.03 0.04 0.04 0.04 0.05 0.03 0.01 0.00 0.00 0.00 0.00 0.00 0.00 0.00 0.00 0.00 0.00 0.00 0.00 0.00 0.00 0.00
0.04 0.05 0.05 0.04 0.03 0.03 0.04 0.04 0.02 0.01 0.01 0.02 0.02 0.02 0.02 0.02 0.02 0.02 0.02 0.01 0.01 0.02 0.03 0.04 0.05 0.06 0.06 0.04 0.02 0.01 0.00 0.00 0.00 0.00 0.00 0.00 0.00 0.00 0.00 0.00 0.00 0.00 0.00
0.05 0.05 0.06 0.06 0.06 0.04 0.03 0.04 0.04 0.03 0.02 0.02 0.03 0.04 0.03 0.02 0.02 0.03 0.02 0.02 0.02 0.02 0.02 0.02 0.03 0.04 0.05 0.06 0.05 0.03 0.02 0.01 0.00 0.00 0.00 0.00 0.00 0.00 0.00 0.00 0.00 0.00 0.00
0.04 0.03 0.04 0.05 0.05 0.04 0.04 0.03 0.03 0.03 0.03 0.03 0.03 0.03 0.02 0.02 0.01 0.02 0.02 0.02 0.02 0.02 0.03 0.02 0.03 0.03 0.04 0.04 0.05 0.05 0.03 0.02 0.01 0.01 0.01 0.01 0.01 0.01 0.01 0.00 0.00 0.00 0.00
0.07 0.05 0.04 0.05 0.06 0.05 0.04 0.04 0.03 0.03 0.02 0.02 0.02 0.02 0.02 0.02 0.02 0.02 0.03 0.02 0.02 0.03 0.04 0.04 0.04 0.05 0.05 0.04 0.04 0.04 0.03 0.02 0.02 0.01 0.01 0.01 0.01 0.01 0.02 0.02 0.01 0.00 0.00
0.07 0.06 0.05 0.05 0.05 0.04 0.04 0.03 0.03 0.03 0.02 0.02 0.02 0.02 0.02 0.02 0.02 0.03 0.04 0.03 0.03 0.03 0.03 0.04 0.05 0.05 0.05 0.04 0.03 0.03 0.03 0.02 0.01 0.01 0.02 0.01 0.00 0.01 0.02 0.02 0.02 0.01 0.00
0.06 0.05 0.04 0.05 0.04 0.04 0.04 0.04 0.05 0.05 0.03 0.03 0.02 0.02 0.02 0.02 0.02 0.02 0.02 0.04 0.04 0.03 0.02 0.03 0.04 0.04 0.04 0.04 0.03 0.03 0.02 0.02 0.01 0.01 0.01 0.01 0.01 0.01 0.02 0.02 0.01 0.01 0.01
0.06 0.05 0.05 0.05 0.05 0.05 0.05 0.06 0.06 0.05 0.04 0.03 0.02 0.02 0.02 0.01 0.02 0.02 0.02 0.03 0.05 0.06 0.05 0.04 0.04 0.04 0.03 0.02 0.02 0.02 0.02 0.01 0.01 0.01 0.01 0.00 0.01 0.01 0.01 0.01 0.01 0.01 0.01
0.06 0.06 0.06 0.06 0.06 0.06 0.06 0.05 0.05 0.05 0.04 0.03 0.03 0.02 0.02 0.02 0.02 0.02 0.02 0.02 0.02 0.03 0.03 0.03 0.02 0.02 0.02 0.01 0.01 0.01 0.01 0.00 0.01 0.01 0.00 0.00 0.00 0.01 0.01 0.01 0.01 0.01 0.02
0.07 0.08 0.07 0.07 0.07 0.06 0.06 0.06 0.07 0.06 0.06 0.05 0.03 0.02 0.01 0.02 0.02 0.01 0.01 0.01 0.01 0.01 0.01 0.01 0.01 0.01 0.01 0.01 0.01 0.00 0.00 0.00 0.00 0.00 0.00 0.00 0.00 0.00 0.00 0.00 0.00 0.00 0.01
0.06 0.08 0.08 0.08 0.07 0.06 0.06 0.06 0.06 0.05 0.04 0.03 0.03 0.02 0.02 0.01 0.01 0.01 0.01 0.01 0.01 0.01 0.00 0.00 0.01 0.00 0.00 0.00 0.00 0.00 0.00 0.00 0.00 0.00 0.00 0.00 0.00 0.00 0.00 0.00 0.00 0.00 0.00
MSLP
1011.49 1011.21 1011.16 1011.36 1011.74 1012.24 1012.78 1013.25 1013.63 1013.87 1014.01 1014.10 1014.17 1014.29 1014.47 1014.70 1014.96 1015.21 1015.42 1015.57 1015.67 1015.74 1015.81 1015.91 1016.07 1016.29 1016.55 1016.82 1017.08 1017.29 1017.44 1017.54 1017.61 1017.66 1017.73 1017.81 1017.90 1017.99 1018.07 1018.10 1018.09 1018.04 1017.97
1011.08 1010.85 1010.86 1011.10 1011.54 1012.10 1012.68 1013.21 1013.64 1013.94 1014.13 1014.26 1014.39 1014.55 1014.77 1015.04 1015.33 1015.62 1015.85 1016.01 1016.12 1016.20 1016.27 1016.37 1016.53 1016.74 1017.00 1017.26 1017.50 1017.71 1017.86 1017.96 1018.04 1018.11 1018.18 1018.27 1018.36 1018.44 1018.49 1018.51 1018.47 1018.41 1018.32
1010.69 1010.53 1010.59 1010.89 1011.39 1011.99 1012.63 1013.21 1013.69 1014.04 1014.28 1014.46 1014.63 1014.83 1015.08 1015.38 1015.69 1015.98 1016.22 1016.40 1016.52 1016.61 1016.69 1016.81 1016.97 1017.19 1017.44 1017.70 1017.94 1018.15 1018.30 1018.41 1018.50 1018.58 1018.66 1018.75 1018.84 1018.91 1018.94 1018.93 1018.88 1018.80 1018.70
1010.39 1010.32 1010.46 1010.82 1011.36 1012.01 1012.68 1013.29 1013.79 1014.17 1014.45 1014.66 1014.86 1015.08 1015.35 1015.65 1015.97 1016.26 1016.51 1016.69 1016.83 1016.94 1017.05 1017.19 1017.39 1017.63 1017.90 1018.17 1018.42 1018.63 1018.79 1018.91 1019.00 1019.09 1019.17 1019.25 1019.33 1019.38 1019.40 1019.37 1019.30 1019.21 1019.10
1010.24 1010.28 1010.50 1010.92 1011.50 1012.17 1012.84 1013.45 1013.96 1014.34 1014.62 1014.84 1015.04 1015.27 1015.54 1015.84 1016.15 1016.44 1016.69 1016.89 1017.05 1017.20 1017.36 1017.55 1017.79 1018.08 1018.38 1018.68 1018.95 1019.16 1019.33 1019.45 1019.54 1019.61 1019.68 1019.75 1019.81 1019.84 1019.84 1019.80 1019.72 1019.62 1019.51
1010.25 1010.40 1010.72 1011.20 1011.80 1012.46 1013.12 1013.69 1014.16 1014.51 1014.77 1014.98 1015.18 1015.40 1015.66 1015.96 1016.26 1016.55 1016.81 1017.03 1017.23 1017.43 1017.64 1017.90 1018.20 1018.54 1018.89 1019.22 1019.51 1019.74 1019.90 1020.01 1020.09 1020.14 1020.18 1020.22 1020.26 1020.27 1020.25 1020.21 1020.13 1020.03 1019.91
1010.38 1010.65 1011.06 1011.59 1012.20 1012.84 1013.45 1013.97 1014.38 1014.69 1014.92 1015.10 1015.30 1015.52 1015.78 1016.07 1016.37 1016.67 1016.94 1017.18 1017.42 1017.67 1017.94 1018.27 1018.63 1019.02 1019.42 1019.78 1020.08 1020.31 1020.47 1020.56 1020.61 1020.63 1020.64 1020.65 1020.66 1020.65 1020.62 1020.57 1020.50 1020.40 1020.29
1010.57 1010.95 1011.43 1012.00 1012.62 1013.23 1013.78 1014.24 1014.59 1014.85 1015.06 1015.24 1015.44 1015.67 1015.94 1016.24 1016.55 1016.86 1017.14 1017.41 1017.68 1017.96 1018.29 1018.66 1019.08 1019.51 1019.94 1020.32 1020.63 1020.86 1021.00 1021.07 1021.09 1021.07 1021.05 1021.02 1021.00 1020.98 1020.94 1020.89 1020.83 1020.74 1020.65
1010.73 1011.20 1011.75 1012.36 1012.97 1013.54 1014.05 1014.45 1014.77 1015.00 1015.21 1015.41 1015.64 1015.90 1016.21 1016.54 1016.87 1017.19 1017.48 1017.76 1018.04 1018.35 1018.70 1019.10 1019.54 1020.00 1020.44 1020.83 1021.14 1021.36 1021.48 1021.53 1021.51 1021.47 1021.41 1021.35 1021.31 1021.26 1021.22 1021.18 1021.12 1021.05 1020.96
1010.81 1011.35 1011.95 1012.58 1013.19 1013.74 1014.21 1014.59 1014.89 1015.14 1015.37 1015.62 1015.91 1016.24 1016.60 1016.97 1017.33 1017.66 1017.95 1018.23 1018.51 1018.82 1019.17 1019.58 1020.02 1020.48 1020.92 1021.30 1021.60 1021.81 1021.91 1021.94 1021.90 1021.83 1021.75 1021.67 1021.60 1021.54 1021.49 1021.45 1021.39 1021.33 1021.25
1010.80 1011.38 1012.01 1012.65 1013.26 1013.80 1014.26 1014.64 1014.96 1015.25 1015.55 1015.88 1016.25 1016.65 1017.08 1017.50 1017.88 1018.23 1018.53 1018.80 1019.07 1019.36 1019.70 1020.08 1020.51 1020.95 1021.38 1021.75 1022.03 1022.23 1022.32 1022.34 1022.29 1022.21 1022.11 1022.01 1021.92 1021.85 1021.78 1021.73 1021.67 1021.61 1021.53
1010.69 1011.29 1011.94 1012.59 1013.20 1013.75 1014.22 1014.62 1014.99 1015.34 1015.72 1016.14 1016.60 1017.09 1017.58 1018.05 1018.47 1018.82 1019.13 1019.39 1019.65 1019.93 1020.25 1020.61 1021.02 1021.44 1021.84 1022.19 1022.47 1022.65 1022.74 1022.76 1022.71 1022.62 1022.52 1022.41 1022.30 1022.21 1022.12 1022.04 1021.97 1021.88 1021.79
1010.52 1011.13 1011.79 1012.45 1013.06 1013.62 1014.11 1014.55 1014.97 1015.40 1015.86 1016.37 1016.91 1017.47 1018.02 1018.53 1018.98 1019.36 1019.67 1019.94 1020.20 1020.48 1020.79 1021.15 1021.54 1021.94 1022.32 1022.66 1022.93 1023.11 1023.21 1023.23 1023.19 1023.10 1023.00 1022.88 1022.75 1022.63 1022.52 1022.40 1022.29 1022.18 1022.07
1010.34 1010.95 1011.61 1012.27 1012.89 1013.46 1013.97 1014.46 1014.93 1015.42 1015.95 1016.53 1017.13 1017.74 1018.33 1018.87 1019.35 1019.75 1020.09 1020.39 1020.68 1020.98 1021.31 1021.68 1022.07 1022.47 1022.85 1023.18 1023.44 1023.62 1023.72 1023.75 1023.72 1023.65 1023.54 1023.41 1023.27 1023.12 1022.97 1022.82 1022.66 1022.51 1022.35
1010.15 1010.76 1011.42 1012.08 1012.71 1013.29 1013.84 1014.36 1014.88 1015.41 1015.99 1016.60 1017.23 1017.87 1018.47 1019.03 1019.53 1019.97 1020.35 1020.70 1021.04 1021.40 1021.78 1022.19 1022.61 1023.02 1023.40 1023.73 1023.99 1024.17 1024.28 1024.31 1024.29 1024.22 1024.11 1023.98 1023.82 1023.64 1023.46 1023.27 1023.07 1022.87 1022.67
1009.95 1010.57 1011.22 1011.89 1012.53 1013.13 1013.70 1014.25 1014.80 1015.37 1015.97 1016.59 1017.22 1017.85 1018.45 1019.02 1019.53 1020.01 1020.45 1020.87 1021.30 1021.74 1022.19 1022.66 1023.12 1023.56 1023.95 1024.28 1024.54 1024.72 1024.82 1024.86 1024.84 1024.77 1024.67 1024.53 1024.36 1024.17 1023.96 1023.73 1023.50 1023.26 1023.01
1009.73 1010.34 1010.99 1011.66 1012.31 1012.94 1013.54 1014.12 1014.70 1015.29 1015.89 1016.50 1017.12 1017.72 1018.31 1018.87 1019.40 1019.92 1020.42 1020.93 1021.45 1021.98 1022.53 1023.07 1023.58 1024.05 1024.46 1024.79 1025.04 1025.21 1025.31 1025.34 1025.33 1025.26 1025.16 1025.02 1024.85 1024.65 1024.43 1024.19 1023.93 1023.66 1023.38
1009.47 1010.06 1010.70 1011.36 1012.02 1012.67 1013.31 1013.93 1014.54 1015.15 1015.76 1016.37 1016.96 1017.54 1018.10 1018.65 1019.20 1019.75 1020.31 1020.90 1021.51 1022.14 1022.77 1023.37 1023.94 1024.44 1024.86 1025.19 1025.44 1025.60 1025.69 1025.72 1025.70 1025.64 1025.54 1025.41 1025.25 1025.06 1024.85 1024.62 1024.36 1024.08 1023.78
1009.17 1009.71 1010.31 1010.96 1011.62 1012.30 1012.97 1013.64 1014.29 1014.94 1015.57 1016.17 1016.76 1017.32 1017.87 1018.42 1018.98 1019.55 1020.17 1020.82 1021.50 1022.19 1022.89 1023.55 1024.15 1024.68 1025.11 1025.45 1025.69 1025.85 1025.94 1025.96 1025.95 1025.89 1025.80 1025.69 1025.55 1025.39 1025.20 1024.99 1024.75 1024.49 1024.19
1008.87 1009.32 1009.85 1010.45 1011.10 1011.78 1012.49 1013.21 1013.92 1014.61 1015.28 1015.91 1016.51 1017.08 1017.63 1018.18 1018.75 1019.35 1019.99 1020.68 1021.40 1022.14 1022.87 1023.56 1024.19 1024.74 1025.19 1025.54 1025.79 1025.95 1026.05 1026.08 1026.07 1026.02 1025.95 1025.86 1025.74 1025.61 1025.46 1025.29 1025.09 1024.86 1024.58
1008.65 1008.96 1009.37 1009.88 1010.48 1011.15 1011.87 1012.62 1013.39 1014.14 1014.86 1015.55 1016.19 1016.79 1017.36 1017.93 1018.51 1019.12 1019.77 1020.47 1021.20 1021.94 1022.68 1023.39 1024.04 1024.60 1025.07 1025.44 1025.72 1025.91 1026.03 1026.09 1026.10 1026.07 1026.01 1025.94 1025.85 1025.75 1025.64 1025.51 1025.36 1025.17 1024.92
1008.60 1008.71 1008.95 1009.32 1009.83 1010.44 1011.14 1011.90 1012.71 1013.51 1014.30 1015.04 1015.74 1016.39 1017.01 1017.61 1018.21 1018.82 1019.47 1020.16 1020.87 1021.60 1022.33 1023.03 1023.69 1024.27 1024.78 1025.19 1025.52 1025.76 1025.92 1026.01 1026.05 1026.05 1026.01 1025.95 1025.88 1025.81 1025.73 1025.65 1025.54 1025.39 1025.19
1008.81 1008.68 1008.71 1008.90 1009.25 1009.75 1010.38 1011.11 1011.90 1012.73 1013.57 1014.37 1015.14 1015.85 1016.53 1017.17 1017.79 1018.42 1019.06 1019.72 1020.41 1021.11 1021.81 1022.51 1023.17 1023.78 1024.33 1024.80 1025.19 1025.50 1025.73 1025.88 1025.96 1025.98 1025.96 1025.92 1025.86 1025.81 1025.75 1025.70 1025.63 1025.53 1025.37
1009.33 1008.96 1008.74 1008.71 1008.86 1009.19 1009.68 1010.31 1011.05 1011.86 1012.70 1013.54 1014.36 1015.14 1015.87 1016.57 1017.23 1017.87 1018.51 1019.15 1019.81 1020.48 1021.16 1021.84 1022.51 1023.16 1023.76 1024.31 1024.78 1025.17 1025.48 1025.69 1025.82 1025.88 1025.88 1025.85 1025.80 1025.75 1025.71 1025.67 1025.64 1025.57 1025.46
1010.18 1009.57 1009.11 1008.83 1008.74 1008.85 1009.15 1009.62 1010.24 1010.96 1011.76 1012.60 1013.45 1014.27 1015.06 1015.81 1016.51 1017.18 1017.82 1018.46 1019.10 1019.75 1020.41 1021.09 1021.77 1022.45 1023.11 1023.73 1024.29 1024.76 1025.15 1025.43 1025.62 1025.72 1025.75 1025.74 1025.70 1025.66 1025.63 1025.61 1025.59 1025.55 1025.47
1011.29 1010.50 1009.82 1009.30 1008.96 1008.82 1008.88 1009.13 1009.57 1010.15 1010.85 1011.64 1012.46 1013.30 1014.13 1014.92 1015.67 1016.37 1017.04 1017.68 1018.32 1018.95 1019.61 1020.29 1020.99 1021.70 1022.41 1023.09 1023.72 1024.27 1024.74 1025.09 1025.34 1025.49 1025.56 1025.58 1025.57 1025.55 1025.54 1025.53 1025.53 1025.51 1025.46
Thickness
5751 5753 5753 5752 5750 5748 5747 5746 5744 5743 5742 5740 5739 5738 5736 5735 5734 5732 5731 5730 5729 5728 5727 5726 5724 5723 5721 5720 5719 5717 5716 5715 5714 5712 5711 5711 5710 5709 5708 5707 5706 5705 5705
5754 5752 5751 5750 5748 5746 5744 5743 5741 5740 5739 5737 5736 5735 5733 5732 5730 5729 5728 5727 5725 5724 5723 5721 5720 5719 5717 5716 5714 5713 5711 5710 5709 5707 5706 5705 5705 5704 5703 5702 5701 5701 5700
5752 5750 5748 5747 5745 5744 5742 5740 5738 5737 5736 5734 5733 5731 5730 5728 5727 5725 5724 5723 5722 5720 5719 5717 5716 5714 5713 5711 5710 5708 5707 5705 5704 5702 5701 5700 5700 5699 5698 5697 5697 5696 5695
5748 5747 5745 5744 5742 5741 5739 5737 5735 5734 5732 5731 5729 5728 5726 5725 5723 5722 5720 5719 5717 5716 5714 5713 5711 5710 5708 5707 5705 5704 5702 5701 5699 5697 5696 5695 5695 5694 5693 5692 5692 5691 5690
5743 5742 5741 5740 5739 5737 5735 5734 5732 5730 5729 5727 5726 5724 5723 5721 5719 5718 5716 5714 5713 5711 5710 5708 5707 5705 5704 5702 5701 5699 5698 5695 5694 5692 5691 5691 5690 5689 5689 5687 5686 5686 5685
5737 5737 5736 5736 5734 5733 5731 5730 5728 5726 5725 5723 5722 5720 5719 5717 5715 5714 5712 5710 5708 5707 5705 5704 5702 5700 5699 5698 5696 5694 5692 5690 5689 5688 5687 5686 5685 5685 5684 5683 5681 5681 5680
5732 5732 5731 5731 5730 5728 5727 5725 5724 5722 5721 5720 5718 5716 5715 5713 5711 5709 5708 5706 5704 5703 5701 5699 5697 5696 5694 5693 5691 5689 5687 5686 5684 5683 5682 5681 5680 5679 5679 5677 5676 5675 5674
5726 5726 5726 5725 5724 5723 5722 5720 5719 5718 5717 5715 5714 5712 5710 5708 5707 5705 5703 5701 5699 5698 5696 5694 5692 5691 5689 5688 5686 5684 5682 5681 5679 5677 5676 5675 5675 5674 5673 5672 5671 5670 5669
5719 5720 5719 5719 5718 5718 5717 5716 5715 5713 5712 5711 5709 5707 5705 5704 5702 5700 5698 5696 5695 5693 5691 5689 5687 5686 5684 5682 5681 5679 5677 5675 5674 5672 5671 5670 5669 5669 5668 5666 5665 5664 5663
5712 5713 5713 5713 5712 5712 5711 5710 5709 5708 5707 5705 5704 5702 5700 5698 5697 5695 5693 5692 5690 5688 5686 5684 5682 5681 5679 5677 5675 5673 5671 5670 5668 5667 5666 5665 5664 5663 5662 5660 5659 5658 5657
5704 5706 5706 5706 5706 5706 5705 5704 5703 5702 5701 5700 5698 5696 5695 5693 5691 5689 5688 5686 5684 5683 5681 5679 5677 5675 5673 5671 5670 5668 5666 5664 5663 5661 5660 5659 5658 5657 5656 5654 5653 5652 5651
5698 5699 5700 5700 5700 5700 5699 5698 5697 5696 5695 5693 5692 5690 5689 5687 5685 5684 5682 5680 5679 5677 5675 5673 5671 5669 5667 5666 5664 5662 5660 5659 5657 5655 5654 5653 5652 5651 5650 5648 5647 5645 5644
5692 5694 5694 5695 5695 5694 5693 5692 5690 5689 5688 5687 5686 5685 5683 5681 5679 5678 5676 5674 5673 5671 5669 5667 5665 5663 5662 5660 5658 5656 5654 5653 5651 5649 5648 5647 5646 5644 5643 5641 5640 5638 5637
5686 5687 5687 5688 5688 5687 5686 5685 5684 5683 5682 5681 5679 5678 5677 5675 5673 5671 5670 5668 5666 5665 5663 5661 5659 5657 5656 5654 5652 5650 5648 5646 5644 5643 5641 5640 5638 5637 5636 5634 5633 5631 5630
5680 5680 5681 5682 5681 5681 5680 5678 5678 5677 5676 5675 5673 5672 5671 5669 5667 5665 5663 5661 5660 5658 5656 5654 5653 5651 5649 5647 5646 5644 5642 5640 5638 5636 5634 5632 5630 5629 5628 5627 5625 5624 5622
5674 5674 5675 5675 5675 5674 5673 5672 5671 5670 5669 5668 5667 5666 5665 5664 5661 5659 5656 5655 5653 5652 5650 5648 5646 5645 5643 5641 5639 5637 5635 5633 5631 5629 5627 5624 5622 5621 5620 5618 5617 5615 5614
5668 5668 5668 5668 5667 5667 5666 5665 5664 5664 5663 5662 5661 5659 5658 5657 5656 5653 5650 5648 5646 5645 5644 5642 5640 5638 5636 5634 5632 5630 5628 5626 5624 5622 5619 5617 5615 5612 5611 5609 5608 5607 5605
5661 5660 5661 5661 5660 5660 5659 5659 5658 5656 5656 5655 5654 5652 5652 5650 5649 5647 5644 5641 5640 5639 5637 5635 5633 5631 5628 5626 5625 5623 5621 5619 5617 5614 5612 5609 5607 5604 5602 5600 5598 5597 5596
5655 5654 5654 5654 5653 5652 5651 5651 5650 5649 5648 5647 5646 5645 5644 5643 5642 5640 5637 5635 5633 5632 5630 5628 5625 5623 5620 5619 5618 5616 5614 5612 5610 5607 5604 5601 5599 5596 5594 5591 5589 5587 5586
5647 5647 5647 5647 5646 5644 5643 5643 5641 5641 5640 5639 5638 5638 5637 5635 5634 5633 5631 5629 5627 5625 5622 5620 5618 5615 5613 5611 5611 5609 5607 5605 5602 5600 5597 5594 5591 5588 5585 5583 5580 5578 5576
5638 5639 5640 5640 5639 5638 5636 5635 5633 5632 5631 5631 5630 5630 5629 5628 5627 5626 5623 5621 5619 5617 5615 5613 5610 5607 5604 5603 5602 5600 5599 5598 5595 5593 5589 5586 5583 5580 5577 5574 5572 5569 5567
5630 5632 5632 5633 5633 5632 5631 5630 5628 5625 5623 5623 5622 5622 5621 5621 5620 5618 5616 5614 5612 5610 5607 5605 5604 5599 5596 5594 5591 5589 5588 5589 5588 5586 5582 5579 5575 5572 5569 5566 5563 5560 5558
5623 5625 5626 5627 5627 5625 5624 5621 5619 5616 5615 5613 5613 5613 5613 5613 5612 5611 5609 5607 5605 5604 5600 5598 5596 5593 5588 5584 5582 5580 5576 5575 5575 5577 5575 5572 5568 5564 5561 5558 5554 5551 5548
5615 5617 5618 5619 5619 5618 5617 5615 5614 5613 5610 5609 5607 5606 5605 5605 5604 5603 5602 5600 5598 5596 5594 5591 5589 5586 5583 5577 5574 5570 5567 5564 5562 5565 5566 5563 5560 5556 5552 5549 5545 5541 5538
5605 5608 5610 5610 5610 5610 5610 5609 5608 5606 5604 5602 5600 5599 5597 5597 5596 5596 5594 5592 5590 5588 5586 5584 5581 5578 5575 5571 5567 5563 5559 5555 5552 5551 5554 5554 5551 5548 5544 5540 5536 5532 5528
5596 5598 5599 5601 5602 5602 5601 5600 5601 5599 5596 5594 5592 5591 5589 5588 5588 5587 5586 5584 5583 5581 5579 5577 5574 5571 5568 5564 5560 5556 5552 5548 5544 5541 5540 5541 5541 5539 5536 5532 5527 5523 5519